Tracking 31027 objects as of 19-Jul-2025
HD Live streaming from Space Station
objects crossing your sky now

STARLINK 1063

Track STARLINK 1063 now!
10-day predictions
STARLINK 1063 is classified as:


NORAD ID: 44768
Int'l Code: 2019-074BH
Perigee: 553.4 km
Apogee: 555.4 km
Inclination: 53.1 °
Period: 95.6 minutes
Semi major axis: 6925 km
RCS: Unknown
Launch date: November 11, 2019
Source: United States (US)
Launch site: AIR FORCE EASTERN TEST RANGE (AFETR)
Your satellite tracking list
COSMOS 2251 DEB
Track 1 satellite(s)




NASA's NSSDC Master Catalog

Two Line Element Set (TLE):
1 44768U 19074BH  25199.68468350  .00000578  00000-0  57719-4 0  9999
2 44768  53.0547 197.1099 0001424  94.1774 265.9377 15.06393211313090
Source of the keplerian elements: AFSPC